Starlink 32202

operational
NORAD ID: 60595 Int'l Des: 2024-150 Owner: SPXS Country: US Constellation: starlink
LEOCIRCULAR

关于 Starlink 32202

正在加载描述...

实时位置

正在加载3D地球...

即将过境

高度历史

Altitude vs Time

uPlot chart will show altitude changes over time

两行轨道根数

1 60595U 24150N 25353.32053187 .00003957 00000-0 14567-3 0 9994
2 60595 53.1625 320.5393 0001062 86.4305 273.6817 15.30197589 75733
Epoch: Dec 19, 2025 • Age: 18 hours

当前状态

高度 477.6 km
速度 7.63 km/s
星下点 36.55°N, 7.98°W
发射日期 Aug 20, 2024
运行时间 1.3 years
类型 internet

技术详情

分类 Payload
质量 730.00 kg
干质量 700.00 kg
总质量 730.00 kg
长度 0.30 m
直径 4.10 m
跨度 29.00 m
形状 Box + pan
制造商 SPXS
平台类型 Starlink V2M
阶段状态 In Orbit
所有者/国家 SPXS/US

大型星座

Loading constellations...